TimeEST,TemperatureF,Dew PointF,Humidity,Sea Level PressureIn,VisibilityMPH,Wind Direction,Wind SpeedMPH,Gust SpeedMPH,PrecipitationIn,Events,Conditions,WindDirDegrees,DateUTC
12:54 AM,52.0,41.0,66,29.95,10.0,South,8.1,-,N/A,,Overcast,190,2013-02-13 05:54:00
1:54 AM,51.1,42.1,71,29.94,10.0,Calm,Calm,-,N/A,,Overcast,0,2013-02-13 06:54:00
2:54 AM,51.1,44.1,77,29.90,10.0,East,5.8,-,0.00,,Mostly Cloudy,80,2013-02-13 07:54:00
3:54 AM,51.1,42.1,71,29.87,10.0,NE,6.9,-,N/A,,Scattered Clouds,50,2013-02-13 08:54:00
4:54 AM,52.0,42.1,69,29.88,10.0,Calm,Calm,-,N/A,,Overcast,0,2013-02-13 09:54:00
5:54 AM,52.0,44.1,74,29.85,9.0,East,4.6,-,0.01,Rain,Light Rain,80,2013-02-13 10:54:00
6:54 AM,51.1,46.0,83,29.84,10.0,Calm,Calm,-,0.07,Rain,Light Rain,0,2013-02-13 11:54:00
7:54 AM,51.1,46.0,83,29.85,10.0,Calm,Calm,-,0.01,Rain,Light Rain,0,2013-02-13 12:54:00
8:54 AM,51.1,46.9,86,29.86,3.0,Calm,Calm,-,0.02,Rain,Light Rain,0,2013-02-13 13:54:00
9:54 AM,52.0,46.9,83,29.83,4.0,Calm,Calm,-,0.02,Rain,Light Rain,0,2013-02-13 14:54:00
10:54 AM,52.0,46.9,83,29.78,10.0,NNW,4.6,-,0.00,,Overcast,340,2013-02-13 15:54:00
11:20 AM,53.6,48.2,82,29.77,5.0,North,6.9,-,0.00,Rain,Light Rain,360,2013-02-13 16:20:00
11:32 AM,53.6,48.2,82,29.75,2.5,NE,4.6,-,0.00,Rain,Light Rain,40,2013-02-13 16:32:00
11:54 AM,52.0,48.0,86,29.73,2.5,NE,6.9,-,0.00,,Overcast,40,2013-02-13 16:54:00
12:09 PM,53.6,48.2,82,29.73,3.0,North,6.9,-,N/A,,Overcast,10,2013-02-13 17:09:00
12:41 PM,53.6,48.2,82,29.72,1.8,NNE,5.8,-,0.00,Rain,Light Rain,20,2013-02-13 17:41:00
12:54 PM,53.1,48.9,86,29.70,1.5,NE,4.6,-,0.01,Rain,Light Rain,40,2013-02-13 17:54:00
1:05 PM,53.6,48.2,82,29.70,2.5,NE,8.1,-,0.00,,Overcast,40,2013-02-13 18:05:00
1:18 PM,51.8,48.2,88,29.70,4.0,NE,6.9,-,0.00,,Overcast,40,2013-02-13 18:18:00
1:26 PM,53.6,48.2,82,29.70,4.0,NE,6.9,-,0.00,,Overcast,40,2013-02-13 18:26:00
1:51 PM,53.6,48.2,82,29.67,2.5,ENE,10.4,-,0.00,,Haze,70,2013-02-13 18:51:00
1:54 PM,53.1,48.0,83,29.67,2.5,East,9.2,-,0.00,,Haze,80,2013-02-13 18:54:00
2:41 PM,51.8,46.4,82,29.64,3.0,East,9.2,-,N/A,,Overcast,90,2013-02-13 19:41:00
2:54 PM,51.1,46.9,86,29.61,4.0,East,10.4,-,N/A,,Overcast,90,2013-02-13 19:54:00
3:54 PM,51.1,46.9,86,29.62,3.0,ENE,6.9,-,N/A,,Overcast,70,2013-02-13 20:54:00
4:01 PM,51.8,46.4,82,29.61,2.0,ESE,4.6,-,N/A,,Overcast,110,2013-02-13 21:01:00
4:11 PM,51.8,46.4,82,29.61,1.8,East,6.9,-,N/A,,Overcast,100,2013-02-13 21:11:00
4:41 PM,50.0,46.4,87,29.62,1.5,Calm,Calm,-,N/A,,Overcast,0,2013-02-13 21:41:00
4:54 PM,50.0,46.9,89,29.60,1.8,East,5.8,-,N/A,,Overcast,100,2013-02-13 21:54:00
5:03 PM,50.0,46.4,87,29.60,2.5,Calm,Calm,-,N/A,,Overcast,0,2013-02-13 22:03:00
5:10 PM,50.0,46.4,87,29.62,4.0,Calm,Calm,-,N/A,,Overcast,0,2013-02-13 22:10:00
5:54 PM,50.0,46.9,89,29.62,3.0,SW,3.5,-,N/A,,Overcast,230,2013-02-13 22:54:00
6:22 PM,51.8,46.4,82,29.61,2.5,SSW,5.8,-,N/A,,Overcast,210,2013-02-13 23:22:00
6:40 PM,51.8,46.4,82,29.61,3.0,SSW,6.9,-,N/A,,Overcast,210,2013-02-13 23:40:00
6:54 PM,51.1,48.0,89,29.62,4.0,SW,8.1,-,N/A,,Overcast,230,2013-02-13 23:54:00
7:52 PM,53.6,48.2,82,29.62,10.0,WSW,16.1,-,N/A,,Overcast,240,2013-02-14 00:52:00
7:54 PM,53.1,48.9,86,29.62,10.0,WSW,13.8,-,N/A,,Overcast,240,2013-02-14 00:54:00
8:22 PM,53.6,48.2,82,29.63,10.0,WSW,15.0,24.2,N/A,,Overcast,240,2013-02-14 01:22:00
8:43 PM,53.6,48.2,82,29.64,10.0,West,11.5,23.0,N/A,,Overcast,260,2013-02-14 01:43:00
8:52 PM,53.6,48.2,82,29.65,10.0,WSW,13.8,20.7,N/A,,Overcast,250,2013-02-14 01:52:00
8:54 PM,54.0,48.0,80,29.65,10.0,West,15.0,21.9,N/A,,Overcast,260,2013-02-14 01:54:00
9:17 PM,53.6,46.4,77,29.67,10.0,West,12.7,23.0,N/A,,Overcast,260,2013-02-14 02:17:00
9:54 PM,53.1,46.0,77,29.69,10.0,West,17.3,25.3,N/A,,Overcast,270,2013-02-14 02:54:00
10:23 PM,51.8,46.4,82,29.70,10.0,West,12.7,-,N/A,,Mostly Cloudy,270,2013-02-14 03:23:00
10:45 PM,51.8,46.4,82,29.72,10.0,West,11.5,-,N/A,,Mostly Cloudy,270,2013-02-14 03:45:00
10:54 PM,52.0,46.0,80,29.72,10.0,West,11.5,-,N/A,,Overcast,270,2013-02-14 03:54:00
11:09 PM,51.8,46.4,82,29.72,10.0,West,15.0,-,N/A,,Overcast,280,2013-02-14 04:09:00
11:40 PM,51.8,44.6,76,29.73,10.0,West,13.8,20.7,N/A,,Overcast,270,2013-02-14 04:40:00
11:54 PM,51.1,45.0,80,29.73,10.0,West,11.5,-,N/A,,Overcast,270,2013-02-14 04:54:00